| time (UTC) | temp F | wind direction | speed knots | gust knots | rain 1hr in | rain 24hr in | rain mn in | humidity % | barometer mb |
| 20260506000005 | 52 | 19 | 5.2 | 9.6 | 0.00 | 0.00 | 0.00 | 75 | 1012.5 |
| 20260505235005 | 52 | 18 | 4.3 | 6.1 | 0.00 | 0.00 | 0.00 | 74 | 1012.4 |
| 20260505234005 | 52 | 20 | 4.3 | 7.0 | 0.00 | 0.00 | 0.00 | 74 | 1012.5 |
| 20260505232005 | 52 | 34 | 4.3 | 7.0 | 0.00 | 0.00 | 0.00 | 73 | 1012.4 |
| 20260505231005 | 52 | 40 | 4.3 | 7.8 | 0.00 | 0.00 | 0.00 | 73 | 1012.6 |
| 20260505230012 | 52 | 49 | 5.2 | 7.8 | 0.00 | 0.00 | 0.00 | 70 | 1012.6 |
| 20260505225005 | 53 | 47 | 5.2 | 9.6 | 0.00 | 0.00 | 0.00 | 68 | 1012.5 |
| 20260505224005 | 53 | 46 | 4.3 | 7.0 | 0.00 | 0.00 | 0.00 | 66 | 1012.5 |
| 20260505223006 | 53 | 49 | 7.0 | 12.2 | 0.00 | 0.00 | 0.00 | 66 | 1012.5 |
| 20260505222005 | 53 | 47 | 7.0 | 11.3 | 0.00 | 0.00 | 0.00 | 65 | 1012.5 |
| 20260505221004 | 54 | 61 | 4.3 | 5.2 | 0.00 | 0.00 | 0.00 | 60 | 1012.5 |
| 20260505214005 | 54 | 78 | 4.3 | 7.0 | 0.00 | 0.00 | 0.00 | 57 | 1012.6 |
| 20260505213005 | 54 | 78 | 6.1 | 9.6 | 0.00 | 0.00 | 0.00 | 57 | 1012.4 |
| 20260505212005 | 54 | 77 | 7.0 | 10.4 | 0.00 | 0.00 | 0.00 | 56 | 1012.4 |
| 20260505211005 | 55 | 80 | 7.0 | 9.6 | 0.00 | 0.00 | 0.00 | 57 | 1012.5 |
| 20260505210006 | 55 | 77 | 5.2 | 9.6 | 0.00 | 0.00 | 0.00 | 60 | 1012.4 |
| 20260505205005 | 56 | 79 | 4.3 | 6.1 | 0.00 | 0.00 | 0.00 | 62 | 1012.3 |
| 20260505204005 | 56 | 74 | 5.2 | 9.6 | 0.00 | 0.00 | 0.00 | 61 | 1012.2 |
| 20260505202006 | 56 | 56 | 5.2 | 9.6 | 0.00 | 0.00 | 0.00 | 60 | 1012.0 |
| 20260505201005 | 57 | 42 | 4.3 | 7.0 | 0.00 | 0.00 | 0.00 | 59 | 1012.0 |
| 20260505200005 | 57 | 50 | 2.6 | 4.3 | 0.00 | 0.00 | 0.00 | 59 | 1011.9 |
| 20260505195005 | 57 | 47 | 1.7 | 3.5 | 0.00 | 0.00 | 0.00 | 58 | 1011.8 |
| 20260505194005 | 58 | 49 | 2.6 | 5.2 | 0.00 | 0.00 | 0.00 | 57 | 1011.4 |
| 20260505193005 | 58 | 48 | 3.5 | 6.1 | 0.00 | 0.00 | 0.00 | 56 | 1011.6 |
| 20260505192006 | 58 | 38 | 3.5 | 5.2 | 0.00 | 0.00 | 0.00 | 56 | 1011.3 |
| 20260505191006 | 58 | 39 | 2.6 | 4.3 | 0.00 | 0.00 | 0.00 | 56 | 1011.4 |
| 20260505190006 | 58 | 48 | 1.7 | 3.5 | 0.00 | 0.00 | 0.00 | 55 | 1011.4 |
| 20260505185006 | 59 | 46 | 3.5 | 4.3 | 0.00 | 0.00 | 0.00 | 55 | 1011.4 |
| 20260505184005 | 59 | 49 | 4.3 | 6.1 | 0.00 | 0.00 | 0.00 | 54 | 1011.4 |
| 20260505183006 | 59 | 51 | 4.3 | 7.0 | 0.00 | 0.00 | 0.00 | 53 | 1011.3 |
| 20260505182006 | 60 | 42 | 4.3 | 7.0 | 0.00 | 0.00 | 0.00 | 53 | 1011.3 |
| 20260505180007 | 60 | 40 | 4.3 | 5.2 | 0.00 | 0.00 | 0.00 | 51 | 1011.2 |
| 20260505175006 | 60 | 33 | 3.5 | 5.2 | 0.00 | 0.00 | 0.00 | 50 | 1011.3 |
| 20260505174006 | 60 | 44 | 3.5 | 5.2 | 0.00 | 0.00 | 0.00 | 49 | 1011.4 |
| 20260505173006 | 60 | 58 | 4.3 | 7.8 | 0.00 | 0.00 | 0.00 | 48 | 1011.4 |
| 20260505172006 | 60 | 58 | 4.3 | 6.1 | 0.00 | 0.00 | 0.00 | 47 | 1011.4 |
| 20260505171006 | 60 | 58 | 6.1 | 9.6 | 0.00 | 0.00 | 0.00 | 47 | 1011.5 |
| 20260505170006 | 60 | 51 | 7.0 | 9.6 | 0.00 | 0.00 | 0.00 | 46 | 1011.5 |
| 20260505165006 | 60 | 46 | 6.1 | 9.6 | 0.00 | 0.00 | 0.00 | 46 | 1011.7 |
| 20260505164006 | 60 | 46 | 6.1 | 8.7 | 0.00 | 0.00 | 0.00 | 46 | 1011.5 |
| 20260505163008 | 61 | 50 | 6.1 | 8.7 | 0.00 | 0.00 | 0.00 | 45 | 1011.6 |
| 20260505162006 | 61 | 50 | 7.0 | 10.4 | 0.00 | 0.00 | 0.00 | 45 | 1011.7 |
| 20260505161007 | 62 | 49 | 6.1 | 9.6 | 0.00 | 0.00 | 0.00 | 45 | 1011.6 |
| 20260505153006 | 62 | 55 | 7.8 | 12.2 | 0.00 | 0.00 | 0.00 | 45 | 1011.6 |
| 20260505152007 | 62 | 47 | 8.7 | 13.9 | 0.00 | 0.00 | 0.00 | 45 | 1011.4 |
| 20260505151007 | 62 | 51 | 8.7 | 13.9 | 0.00 | 0.00 | 0.00 | 44 | 1011.5 |
| 20260505125006 | 63 | 58 | 9.6 | 14.8 | 0.00 | 0.00 | 0.00 | 46 | 1012.0 |
| 20260505124006 | 63 | 48 | 7.8 | 12.2 | 0.00 | 0.00 | 0.00 | 48 | 1011.9 |
| 20260505123006 | 63 | 44 | 7.8 | 13.0 | 0.00 | 0.00 | 0.00 | 48 | 1011.9 |
| 20260505122006 | 63 | 38 | 9.6 | 13.0 | 0.00 | 0.00 | 0.00 | 46 | 1012.0 |
| 20260505121007 | 64 | 33 | 6.1 | 9.6 | 0.00 | 0.00 | 0.00 | 48 | 1012.1 |
| 20260505120006 | 64 | 38 | 7.0 | 9.6 | 0.00 | 0.00 | 0.00 | 49 | 1012.0 |
| 20260505115006 | 64 | 34 | 6.1 | 10.4 | 0.00 | 0.00 | 0.00 | 53 | 1011.8 |
| 20260505114006 | 63 | 25 | 5.2 | 9.6 | 0.00 | 0.00 | 0.00 | 53 | 1011.9 |
| 20260505113006 | 63 | 22 | 7.0 | 10.4 | 0.00 | 0.00 | 0.00 | 54 | 1012.0 |
| 20260505112006 | 62 | 13 | 7.0 | 10.4 | 0.00 | 0.00 | 0.00 | 58 | 1012.1 |
| 20260505111006 | 62 | 12 | 7.8 | 10.4 | 0.00 | 0.00 | 0.00 | 58 | 1012.3 |
| 20260505102007 | 64 | 8 | 8.7 | 11.3 | 0.00 | 0.00 | 0.00 | 54 | 1012.3 |
| 20260505101006 | 64 | 6 | 7.0 | 11.3 | 0.00 | 0.00 | 0.00 | 55 | 1012.2 |
| 20260505100006 | 61 | 12 | 8.7 | 13.9 | 0.00 | 0.00 | 0.00 | 63 | 1012.4 |
| 20260505095007 | 60 | 15 | 8.7 | 12.2 | 0.00 | 0.00 | 0.00 | 63 | 1012.3 |
| 20260505094006 | 60 | 20 | 8.7 | 12.2 | 0.00 | 0.00 | 0.00 | 63 | 1012.5 |
| 20260505093006 | 61 | 20 | 7.0 | 11.3 | 0.00 | 0.00 | 0.00 | 64 | 1012.6 |
| 20260505092006 | 60 | 18 | 7.8 | 11.3 | 0.00 | 0.00 | 0.00 | 65 | 1012.6 |
| 20260505091008 | 58 | 16 | 7.0 | 9.6 | 0.00 | 0.00 | 0.00 | 66 | 1012.8 |
| 20260505090006 | 57 | 15 | 7.0 | 8.7 | 0.00 | 0.00 | 0.00 | 69 | 1012.5 |
| 20260505085007 | 57 | 18 | 7.8 | 12.2 | 0.00 | 0.00 | 0.00 | 68 | 1012.6 |
| 20260505084006 | 57 | 22 | 7.8 | 13.0 | 0.00 | 0.00 | 0.00 | 68 | 1012.8 |
| 20260505083006 | 57 | 29 | 7.8 | 11.3 | 0.00 | 0.00 | 0.00 | 72 | 1012.8 |
| 20260505082006 | 57 | 37 | 7.0 | 11.3 | 0.00 | 0.00 | 0.00 | 73 | 1012.8 |
| 20260505081006 | 56 | 36 | 7.0 | 9.6 | 0.00 | 0.00 | 0.00 | 73 | 1012.8 |
| 20260505080007 | 56 | 33 | 7.0 | 9.6 | 0.00 | 0.00 | 0.00 | 74 | 1012.7 |
| 20260505075006 | 56 | 19 | 7.0 | 9.6 | 0.00 | 0.00 | 0.00 | 75 | 1012.9 |
| 20260505074006 | 56 | 8 | 6.1 | 10.4 | 0.00 | 0.00 | 0.00 | 75 | 1012.9 |
| 20260505072007 | 55 | 16 | 5.2 | 9.6 | 0.00 | 0.00 | 0.00 | 77 | 1012.8 |
| 20260505071006 | 55 | 18 | 5.2 | 7.0 | 0.00 | 0.00 | 0.00 | 78 | 1012.9 |
| 20260505070006 | 55 | 22 | 5.2 | 8.7 | 0.00 | 0.00 | 0.00 | 80 | 1013.0 |
| 20260505065006 | 54 | 11 | 6.1 | 7.8 | 0.00 | 0.00 | 0.00 | 80 | 1012.8 |
| 20260505064007 | 54 | 9 | 7.0 | 10.4 | 0.00 | 0.00 | 0.00 | 81 | 1013.1 |
| 20260505063007 | 54 | 11 | 5.2 | 7.8 | 0.00 | 0.00 | 0.00 | 83 | 1013.1 |
| 20260505062007 | 54 | 9 | 6.1 | 9.6 | 0.00 | 0.00 | 0.00 | 84 | 1013.3 |
| 20260505061006 | 54 | 17 | 4.3 | 6.1 | 0.00 | 0.00 | 0.00 | 87 | 1013.1 |
| 20260505060007 | 53 | 21 | 4.3 | 6.1 | 0.00 | 0.00 | 0.00 | 92 | 1013.2 |
| 20260505055006 | 52 | 29 | 3.5 | 8.7 | 0.00 | 0.00 | 0.00 | 93 | 1013.2 |
| 20260505054006 | 51 | 32 | 5.2 | 8.7 | 0.00 | 0.00 | 0.00 | 93 | 1012.9 |
| 20260505053007 | 51 | 33 | 4.3 | 7.0 | 0.00 | 0.00 | 0.00 | 93 | 1012.9 |
| 20260505052006 | 51 | 23 | 4.3 | 6.1 | 0.00 | 0.00 | 0.00 | 93 | 1012.9 |
| 20260505041011 | 50 | 21 | 3.5 | 6.1 | 0.00 | 0.00 | 0.00 | 93 | 1013.1 |
| 20260505040006 | 50 | 20 | 1.7 | 3.5 | 0.00 | 0.00 | 0.00 | 93 | 1013.2 |
| 20260505035005 | 50 | 26 | 2.6 | 3.5 | 0.00 | 0.00 | 0.00 | 93 | 1013.3 |
| 20260505034005 | 50 | 42 | 2.6 | 3.5 | 0.00 | 0.00 | 0.00 | 92 | 1013.4 |
| 20260505033006 | 50 | 55 | 1.7 | 3.5 | 0.00 | 0.00 | 0.00 | 91 | 1013.5 |
| 20260505032005 | 50 | 59 | 1.7 | 3.5 | 0.00 | 0.00 | 0.00 | 91 | 1013.4 |
| 20260505030006 | 51 | 55 | 2.6 | 4.3 | 0.00 | 0.00 | 0.00 | 90 | 1013.5 |
| 20260505025006 | 51 | 57 | 1.7 | 3.5 | 0.00 | 0.00 | 0.00 | 90 | 1013.3 |
| 20260505024006 | 51 | 55 | 1.7 | 3.5 | 0.00 | 0.00 | 0.00 | 90 | 1013.3 |
| 20260505022006 | 52 | 62 | 2.6 | 4.3 | 0.00 | 0.00 | 0.00 | 90 | 1013.3 |
| 20260505020005 | 52 | 66 | 3.5 | 5.2 | 0.00 | 0.00 | 0.00 | 90 | 1013.5 |
| 20260505015005 | 52 | 69 | 3.5 | 6.1 | 0.00 | 0.00 | 0.00 | 90 | 1013.7 |
| 20260505013006 | 53 | 69 | 5.2 | 8.7 | 0.00 | 0.00 | 0.00 | 90 | 1013.8 |
| 20260505012006 | 53 | 68 | 5.2 | 9.6 | 0.00 | 0.00 | 0.00 | 90 | 1013.9 |
| 20260505011005 | 53 | 63 | 4.3 | 7.8 | 0.00 | 0.00 | 0.00 | 90 | 1014.0 |
| 20260505010006 | 53 | 58 | 3.5 | 5.2 | 0.00 | 0.00 | 0.00 | 90 | 1013.6 |
| 20260505005006 | 53 | 57 | 3.5 | 6.1 | 0.00 | 0.00 | 0.00 | 90 | 1013.9 |
| 20260505004005 | 53 | 57 | 4.3 | 6.1 | 0.00 | 0.00 | 0.00 | 90 | 1014.2 |
| 20260505003006 | 53 | 61 | 5.2 | 7.0 | 0.00 | 0.00 | 0.00 | 90 | 1014.3 |